GW1943 Weather Reports


Display with metric or nautical units.
time (UTC)temp
F
wind
direction
speed
MPH
gust
MPH
rain 1hr
in
rain 24hr
in
rain mn
in
humidity
%
barometer
mb
20260902053539 60 208 0.0 1.0 0.00 0.00 0.00 94 1011.5
20260902053039 60 202 0.0 1.0 0.00 0.00 0.00 94 1011.5
20260902052533 61 201 0.0 0.0 0.00 0.00 0.00 93 1011.5
20260902052030 60 200 0.0 0.0 0.00 0.00 0.00 93 1011.7
20260902051529 60 203 0.0 0.0 0.00 0.00 0.00 93 1011.4
20260902051028 60 205 0.0 1.0 0.00 0.00 0.00 93 1011.4
20260902050522 60 203 0.0 2.0 0.00 0.00 0.00 93 1011.4
20260902050018 60 202 0.0 0.0 0.00 0.00 0.00 93 1011.5
20260902045513 60 202 0.0 1.0 0.00 0.00 0.00 94 1011.4
20260902045010 60 195 0.0 0.0 0.00 0.00 0.00 93 1011.3
20260902044504 60 205 0.0 1.0 0.00 0.00 0.00 93 1011.2
20260902044000 60 203 0.0 0.0 0.00 0.00 0.00 93 1011.2
20260902043454 60 203 0.0 0.0 0.00 0.00 0.00 93 1011.5
20260902042950 60 199 1.0 1.0 0.00 0.00 0.00 93 1011.5
20260902042449 60 204 0.0 0.0 0.00 0.00 0.00 93 1011.3
20260902041944 60 202 0.0 0.0 0.00 0.00 0.00 94 1011.4
20260902041439 60 205 0.0 0.0 0.00 0.00 0.00 94 1011.4
20260902040939 60 198 0.0 1.0 0.00 0.00 0.00 94 1011.6
20260902040433 60 203 0.0 1.0 0.00 0.00 0.00 94 1011.4
20260902035932 60 200 0.0 0.0 0.00 0.00 0.00 94 1011.3
20260902035428 60 201 0.0 0.0 0.00 0.00 0.00 94 1011.4
20260902034927 60 206 0.0 0.0 0.00 0.00 0.00 94 1011.4
20260902034422 60 203 0.0 0.0 0.00 0.00 0.00 94 1011.5
20260902033921 60 172 0.0 1.0 0.00 0.00 0.00 94 1011.4
20260902033414 60 205 0.0 1.0 0.00 0.00 0.00 93 1011.6
20260902032914 61 201 0.0 0.0 0.00 0.00 0.00 92 1011.4
20260902032408 61 208 0.0 2.0 0.00 0.00 0.00 91 1011.3
20260902031903 61 208 2.0 2.0 0.00 0.00 0.00 89 1011.4
20260902031359 62 211 0.0 2.0 0.00 0.00 0.00 88 1011.3
20260902030855 62 209 0.0 2.0 0.00 0.00 0.00 87 1011.5
20260902030349 63 257 1.0 6.0 0.00 0.00 0.00 83 1011.3
20260902025848 64 208 0.0 3.0 0.00 0.00 0.00 80 1011.3
20260902025344 64 256 2.0 3.0 0.00 0.00 0.00 80 1011.1
20260902024838 64 213 0.0 2.0 0.00 0.00 0.00 80 1011.0
20260902024334 65 208 1.0 3.0 0.00 0.00 0.00 79 1011.0
20260902023829 65 262 3.0 3.0 0.00 0.00 0.00 78 1010.9
20260902023325 65 214 1.0 2.0 0.00 0.00 0.00 78 1011.0
20260902022823 65 211 1.0 3.0 0.00 0.00 0.00 78 1011.0
20260902022319 65 210 3.0 5.0 0.00 0.00 0.00 78 1010.9
20260902021815 65 210 0.0 2.0 0.00 0.00 0.00 80 1011.1
20260902021309 64 212 0.0 1.0 0.00 0.00 0.00 80 1011.0
20260902020805 64 208 1.0 1.0 0.00 0.00 0.00 80 1010.9
20260902020301 64 213 0.0 2.0 0.00 0.00 0.00 80 1010.9
20260902015756 64 212 0.0 1.0 0.00 0.00 0.00 80 1010.8
20260902015252 64 207 0.0 0.0 0.00 0.00 0.00 80 1011.0
20260902014748 65 212 0.0 2.0 0.00 0.00 0.00 79 1011.0
20260902014244 65 213 0.0 1.0 0.00 0.00 0.00 79 1010.9
20260902013743 65 222 1.0 2.0 0.00 0.00 0.00 79 1010.9
20260902013238 65 230 1.0 2.0 0.00 0.00 0.00 79 1011.0
20260902012733 65 206 1.0 3.0 0.00 0.00 0.00 79 1010.9
20260902012229 65 201 5.0 10.0 0.00 0.00 0.00 78 1011.0
20260902011724 65 238 3.0 6.0 0.00 0.00 0.00 78 1011.0
20260902011223 65 260 2.0 5.0 0.00 0.00 0.00 78 1011.2
20260902010718 66 286 4.0 6.0 0.00 0.00 0.00 77 1011.0
20260902010214 66 233 1.0 5.0 0.00 0.00 0.00 75 1011.0
20260902005712 66 214 1.0 3.0 0.00 0.00 0.00 75 1011.2
20260902005208 66 213 2.0 3.0 0.00 0.00 0.00 75 1011.0
20260902004708 66 230 2.0 3.0 0.00 0.00 0.00 75 1011.1
20260902004203 66 225 0.0 1.0 0.00 0.00 0.00 77 1011.1
20260902003658 65 211 0.0 0.0 0.00 0.00 0.00 79 1011.3
20260902003153 65 222 2.0 3.0 0.00 0.00 0.00 78 1011.0
20260902002648 65 236 3.0 5.0 0.00 0.00 0.00 78 1011.0
20260902002143 66 214 3.0 5.0 0.00 0.00 0.00 78 1011.2
20260902001638 66 211 2.0 3.0 0.00 0.00 0.00 77 1011.0
20260902001132 66 215 2.0 6.0 0.00 0.00 0.00 77 1011.1
20260902000627 66 210 1.0 3.0 0.00 0.00 0.00 77 1011.2
20260902000122 66 214 1.0 2.0 0.00 0.00 0.00 76 1011.0
20260901235622 66 213 2.0 5.0 0.00 0.00 0.00 75 1011.3
20260901235118 66 209 0.0 5.0 0.00 0.00 0.00 76 1011.0
20260901234616 66 211 2.0 8.0 0.00 0.00 0.00 74 1010.8
20260901234112 66 215 0.0 1.0 0.00 0.00 0.00 76 1011.0
20260901233607 66 217 1.0 2.0 0.00 0.00 0.00 76 1010.9
20260901233103 66 245 1.0 1.0 0.00 0.00 0.00 76 1010.9
20260901232558 66 212 0.0 2.0 0.00 0.00 0.00 76 1010.9
20260901232057 66 227 1.0 1.0 0.00 0.00 0.00 77 1011.0
20260901231554 66 214 0.0 1.0 0.00 0.00 0.00 77 1011.0
20260901231050 66 210 1.0 1.0 0.00 0.00 0.00 77 1010.9
20260901230545 66 235 2.0 3.0 0.00 0.00 0.00 77 1010.9
20260901230040 66 211 1.0 2.0 0.00 0.00 0.00 76 1011.2
20260901225535 67 205 1.0 2.0 0.00 0.00 0.00 75 1011.0
20260901225035 67 214 0.0 1.0 0.00 0.00 0.00 77 1011.0
20260901224531 66 211 0.0 2.0 0.00 0.00 0.00 77 1011.0
20260901224027 66 211 2.0 6.0 0.00 0.00 0.00 77 1011.0
20260901223522 65 248 1.0 2.0 0.00 0.00 0.00 79 1010.9
20260901223018 65 218 0.0 3.0 0.00 0.00 0.00 80 1010.9
20260901222514 65 219 1.0 3.0 0.00 0.00 0.00 79 1011.2
20260901222009 65 206 1.0 3.0 0.00 0.00 0.00 79 1011.1
20260901221505 66 240 1.0 3.0 0.00 0.00 0.00 79 1010.9
20260901221000 65 243 4.0 6.0 0.00 0.00 0.00 78 1011.2
20260901220500 66 224 2.0 6.0 0.00 0.00 0.00 78 1011.0
20260901215958 66 230 4.0 5.0 0.00 0.00 0.00 77 1011.1
20260901215457 66 212 1.0 5.0 0.00 0.00 0.00 78 1011.0
20260901214956 66 231 3.0 5.0 0.00 0.00 0.00 79 1011.3
20260901214455 66 199 2.0 7.0 0.00 0.00 0.00 78 1011.0
20260901213949 66 242 3.0 8.0 0.00 0.00 0.00 77 1011.0
20260901213444 66 213 3.0 6.0 0.00 0.00 0.00 77 1011.0
20260901212943 66 210 0.0 2.0 0.00 0.00 0.00 76 1011.0
20260901212439 66 219 1.0 1.0 0.00 0.00 0.00 76 1011.2
20260901211936 66 214 1.0 1.0 0.00 0.00 0.00 76 1011.0
20260901211431 66 208 0.0 0.0 0.00 0.00 0.00 78 1011.3
20260901210927 66 215 0.0 1.0 0.00 0.00 0.00 78 1011.3
20260901210422 66 214 0.0 2.0 0.00 0.00 0.00 78 1011.3
20260901205919 66 214 0.0 0.0 0.00 0.00 0.00 77 1011.0
20260901205413 66 212 1.0 2.0 0.00 0.00 0.00 77 1011.6
20260901204908 66 213 0.0 1.0 0.00 0.00 0.00 78 1011.5
20260901204404 66 212 0.0 0.0 0.00 0.00 0.00 78 1011.3
20260901203903 66 207 1.0 3.0 0.00 0.00 0.00 78 1011.2
20260901203358 66 215 0.0 1.0 0.00 0.00 0.00 78 1011.5
20260901202853 66 203 0.0 0.0 0.00 0.00 0.00 77 1011.5
20260901202348 67 211 0.0 2.0 0.00 0.00 0.00 77 1011.4
20260901201844 67 211 0.0 0.0 0.00 0.00 0.00 76 1011.3
20260901201344 67 189 0.0 0.0 0.00 0.00 0.00 76 1011.4
20260901200838 67 218 0.0 1.0 0.00 0.00 0.00 75 1011.5
20260901200333 68 226 1.0 3.0 0.00 0.00 0.00 74 1011.3
20260901195832 68 211 0.0 1.0 0.00 0.00 0.00 74 1011.5
20260901195330 69 198 0.0 1.0 0.00 0.00 0.00 72 1011.4
20260901194821 69 221 1.0 2.0 0.00 0.00 0.00 72 1011.4
20260901194315 68 232 2.0 2.0 0.00 0.00 0.00 73 1011.5
20260901193812 68 220 1.0 2.0 0.00 0.00 0.00 75 1011.4
20260901193310 68 211 0.0 0.0 0.00 0.00 0.00 75 1011.6
20260901192805 67 220 0.0 1.0 0.00 0.00 0.00 75 1011.7
20260901192301 67 197 2.0 2.0 0.00 0.00 0.00 75 1011.5
20260901191756 67 209 0.0 2.0 0.00 0.00 0.00 76 1011.4
20260901191252 67 202 3.0 5.0 0.00 0.00 0.00 74 1011.6
20260901190748 67 223 1.0 3.0 0.00 0.00 0.00 76 1011.5
20260901190248 67 228 2.0 3.0 0.00 0.00 0.00 76 1011.5
20260901185746 66 217 1.0 5.0 0.00 0.00 0.00 77 1011.8
20260901185245 66 216 1.0 2.0 0.00 0.00 0.00 77 1011.8
20260901184741 66 203 0.0 3.0 0.00 0.00 0.00 77 1011.6
20260901184236 66 216 2.0 5.0 0.00 0.00 0.00 77 1011.6
20260901183732 66 243 2.0 2.0 0.00 0.00 0.00 78 1011.7
20260901183231 66 237 1.0 3.0 0.00 0.00 0.00 77 1011.7
20260901182728 66 216 1.0 2.0 0.00 0.00 0.00 78 1011.6
20260901182226 65 211 0.0 2.0 0.00 0.00 0.00 79 1011.6
20260901181722 65 210 2.0 2.0 0.00 0.00 0.00 78 1011.7
20260901181222 65 201 1.0 2.0 0.00 0.00 0.00 79 1011.7
20260901180721 64 209 1.0 5.0 0.00 0.00 0.00 79 1011.6
20260901180220 64 210 0.0 3.0 0.00 0.00 0.00 81 1011.5
20260901175720 64 225 1.0 2.0 0.00 0.00 0.00 81 1011.5
20260901175215 63 210 2.0 2.0 0.00 0.00 0.00 82 1011.5
20260901174710 63 212 0.0 1.0 0.00 0.00 0.00 83 1011.3
20260901174206 63 208 0.0 2.0 0.00 0.00 0.00 82 1011.3
20260901173701 64 203 0.0 0.0 0.00 0.00 0.00 83 1011.3
20260901173156 63 215 1.0 2.0 0.00 0.00 0.00 84 1011.3
20260901172652 63 214 0.0 1.0 0.00 0.00 0.00 83 1011.2
20260901172149 63 207 1.0 2.0 0.00 0.00 0.00 83 1011.2
20260901171644 62 207 0.0 2.0 0.00 0.00 0.00 85 1011.3
20260901171143 62 210 0.0 1.0 0.00 0.00 0.00 87 1011.4
20260901170643 61 214 0.0 2.0 0.00 0.00 0.00 87 1011.5
20260901170137 61 215 0.0 1.0 0.00 0.00 0.00 88 1011.3
20260901165636 61 213 1.0 3.0 0.00 0.00 0.00 88 1011.5
20260901165132 60 209 0.0 1.0 0.00 0.00 0.00 89 1011.5
20260901164628 60 212 0.0 1.0 0.00 0.00 0.00 89 1011.5
20260901164123 60 221 1.0 2.0 0.00 0.00 0.00 89 1011.7
20260901163618 60 201 2.0 3.0 0.00 0.00 0.00 89 1011.6
20260901163117 60 203 0.0 1.0 0.00 0.00 0.00 89 1011.6
20260901162612 60 214 2.0 2.0 0.00 0.00 0.00 89 1011.6
20260901162112 60 213 0.0 2.0 0.00 0.00 0.00 90 1011.6
20260901161611 60 209 1.0 2.0 0.00 0.00 0.00 90 1011.7
20260901161110 60 211 0.0 1.0 0.00 0.00 0.00 90 1011.5
20260901160607 60 213 1.0 1.0 0.00 0.00 0.00 89 1011.8
20260901155600 60 214 0.0 1.0 0.00 0.00 0.00 90 1011.7
20260901155051 59 211 1.0 3.0 0.00 0.00 0.00 91 1011.8
20260901154551 59 211 0.0 1.0 0.00 0.00 0.00 91 1011.7
20260901154045 59 248 0.0 0.0 0.00 0.00 0.00 91 1011.6
20260901153540 59 210 1.0 1.0 0.00 0.00 0.00 91 1011.7
20260901153034 59 211 0.0 0.0 0.00 0.00 0.00 91 1011.9
20260901152529 59 211 0.0 2.0 0.00 0.00 0.00 91 1011.8
20260901152028 59 208 0.0 1.0 0.00 0.00 0.00 92 1011.8
20260901151524 59 210 0.0 1.0 0.00 0.00 0.00 92 1011.8
20260901151023 59 209 0.0 2.0 0.00 0.00 0.00 92 1011.7
20260901150521 58 211 0.0 0.0 0.00 0.00 0.00 92 1011.6
20260901150020 58 216 0.0 1.0 0.00 0.00 0.00 92 1011.8
20260901145513 58 209 0.0 1.0 0.00 0.00 0.00 93 1011.7
20260901145013 58 199 0.0 0.0 0.00 0.00 0.00 93 1011.7
20260901144508 57 211 0.0 2.0 0.00 0.00 0.00 93 1011.5
20260901144004 57 214 0.0 0.0 0.00 0.00 0.00 94 1011.5
20260901143459 57 208 1.0 2.0 0.00 0.00 0.00 95 1011.7
20260901142955 57 212 0.0 0.0 0.00 0.00 0.00 95 1011.5
20260901142449 57 209 0.0 1.0 0.00 0.00 0.00 95 1011.8
20260901141945 57 211 0.0 1.0 0.00 0.00 0.00 95 1011.4
20260901141439 57 211 0.0 0.0 0.00 0.00 0.00 95 1011.5
20260901140934 57 210 0.0 0.0 0.00 0.00 0.00 94 1011.4
20260901140431 57 209 0.0 1.0 0.00 0.00 0.00 94 1011.4
20260901135926 57 210 0.0 0.0 0.00 0.00 0.00 94 1011.3
20260901135421 57 211 0.0 0.0 0.00 0.00 0.00 93 1011.3
20260901134917 57 218 0.0 0.0 0.00 0.00 0.00 93 1011.1
20260901134413 57 206 0.0 1.0 0.00 0.00 0.00 93 1011.2
20260901133912 57 209 0.0 0.0 0.00 0.00 0.00 93 1011.1
20260901133406 57 194 0.0 1.0 0.00 0.00 0.00 94 1011.2
20260901132904 57 203 0.0 0.0 0.00 0.00 0.00 94 1011.0
20260901132359 57 202 0.0 0.0 0.00 0.00 0.00 94 1011.0
20260901131853 57 207 0.0 0.0 0.00 0.00 0.00 94 1010.9
20260901131352 57 207 0.0 0.0 0.00 0.00 0.00 94 1011.4
20260901130848 57 200 0.0 0.0 0.00 0.00 0.00 94 1011.1
20260901130343 57 205 0.0 1.0 0.00 0.00 0.00 95 1011.2
20260901125840 57 200 0.0 0.0 0.00 0.00 0.00 95 1011.1
20260901125339 57 209 0.0 1.0 0.00 0.00 0.00 95 1011.0
20260901124835 57 215 0.0 0.0 0.00 0.00 0.00 95 1010.9
20260901124330 57 215 0.0 0.0 0.00 0.00 0.00 95 1010.8
20260901123829 57 214 0.0 0.0 0.00 0.00 0.00 96 1011.1
20260901123325 57 212 0.0 1.0 0.00 0.00 0.00 96 1010.8
20260901122823 57 199 0.0 0.0 0.00 0.00 0.00 96 1010.9
20260901122318 57 203 0.0 0.0 0.00 0.00 0.00 96 1011.1
20260901121817 57 201 0.0 0.0 0.00 0.00 0.00 97 1010.7
20260901121312 57 210 0.0 0.0 0.00 0.00 0.00 97 1010.9
20260901120807 57 209 0.0 1.0 0.00 0.00 0.00 97 1010.7
20260901120301 57 209 0.0 0.0 0.00 0.00 0.00 97 1010.6
20260901115756 56 209 0.0 0.0 0.00 0.00 0.00 97 1010.9
20260901115252 56 208 0.0 0.0 0.00 0.00 0.00 97 1010.5
20260901114749 56 201 0.0 0.0 0.00 0.00 0.00 96 1010.5
20260901114244 56 200 0.0 0.0 0.00 0.00 0.00 96 1010.6
20260901113742 56 200 0.0 0.0 0.00 0.00 0.00 96 1010.4
20260901113237 56 200 0.0 0.0 0.00 0.00 0.00 96 1010.4
20260901112732 56 200 0.0 0.0 0.00 0.00 0.00 96 1010.4
20260901112232 56 200 0.0 0.0 0.00 0.00 0.00 96 1010.5
20260901111726 56 200 0.0 0.0 0.00 0.00 0.00 96 1010.4
20260901111220 56 200 0.0 0.0 0.00 0.00 0.00 96 1010.5
20260901110714 56 200 0.0 0.0 0.00 0.00 0.00 96 1010.6
20260901110209 56 200 0.0 0.0 0.00 0.00 0.00 96 1010.5
20260901105706 56 200 0.0 0.0 0.00 0.00 0.00 95 1010.6
20260901105205 56 200 0.0 0.0 0.00 0.00 0.00 95 1010.5
20260901104702 56 200 0.0 0.0 0.00 0.00 0.00 95 1010.5
20260901104156 56 200 0.0 0.0 0.00 0.00 0.00 95 1010.6
20260901103656 56 200 0.0 0.0 0.00 0.00 0.00 94 1010.4
20260901103151 56 200 0.0 0.0 0.00 0.00 0.00 94 1010.4
20260901102646 56 200 0.0 0.0 0.00 0.00 0.00 94 1010.6
20260901102145 57 200 0.0 0.0 0.00 0.00 0.00 94 1010.6
20260901101642 57 200 0.0 0.0 0.00 0.00 0.00 94 1010.4
20260901101140 57 200 0.0 0.0 0.00 0.00 0.00 94 1010.4
20260901100635 57 200 0.0 0.0 0.00 0.00 0.00 93 1010.4
20260901100130 57 200 0.0 0.0 0.00 0.00 0.00 93 1010.4
20260901095628 57 200 0.0 0.0 0.00 0.00 0.00 93 1010.3
20260901095126 57 200 0.0 0.0 0.00 0.00 0.00 93 1010.2
20260901094621 57 200 0.0 0.0 0.00 0.00 0.00 93 1010.2
20260901094120 57 200 0.0 0.0 0.00 0.00 0.00 93 1010.1
20260901093610 57 200 0.0 0.0 0.00 0.00 0.00 93 1010.2
20260901093109 57 200 0.0 0.0 0.00 0.00 0.00 93 1010.4
20260901092606 57 200 0.0 0.0 0.00 0.00 0.00 92 1010.1
20260901092102 57 200 0.0 0.0 0.00 0.00 0.00 92 1010.1
20260901091557 57 200 0.0 0.0 0.00 0.00 0.00 92 1010.2
20260901091052 57 200 0.0 0.0 0.00 0.00 0.00 92 1010.1
20260901090551 58 200 0.0 0.0 0.00 0.00 0.00 91 1010.2
20260901090047 58 200 0.0 0.0 0.00 0.00 0.00 91 1010.2
20260901085542 58 200 0.0 0.0 0.00 0.00 0.00 91 1010.2
20260901085038 58 202 0.0 0.0 0.00 0.00 0.00 91 1010.1
20260901084534 58 202 0.0 0.0 0.00 0.00 0.00 91 1010.3
20260901084031 58 202 0.0 0.0 0.00 0.00 0.00 91 1010.2
20260901083530 58 202 0.0 0.0 0.00 0.00 0.00 91 1010.0
20260901083028 58 202 0.0 0.0 0.00 0.00 0.00 91 1010.1
20260901082524 58 202 0.0 0.0 0.00 0.00 0.00 91 1010.2
20260901082019 58 202 0.0 0.0 0.00 0.00 0.00 91 1009.9
20260901081514 58 202 0.0 0.0 0.00 0.00 0.00 91 1010.0
20260901081009 58 202 0.0 0.0 0.00 0.00 0.00 90 1009.9
20260901080508 58 202 0.0 0.0 0.00 0.00 0.00 90 1009.9
20260901080002 59 202 0.0 0.0 0.00 0.00 0.00 89 1010.0
20260901075458 59 202 0.0 0.0 0.00 0.00 0.00 89 1010.2
20260901074956 59 202 0.0 0.0 0.00 0.00 0.00 89 1009.9
20260901074451 59 202 0.0 0.0 0.00 0.00 0.00 89 1009.8
20260901073946 59 202 0.0 0.0 0.00 0.00 0.00 89 1009.9
20260901073443 59 202 0.0 0.0 0.00 0.00 0.00 89 1010.0
20260901072943 59 202 0.0 0.0 0.00 0.00 0.00 89 1009.8
20260901072438 59 202 0.0 0.0 0.00 0.00 0.00 88 1010.0
20260901071933 59 202 0.0 0.0 0.00 0.00 0.00 88 1010.0
20260901071432 59 202 0.0 0.0 0.00 0.00 0.00 88 1010.0
20260901070932 59 202 0.0 0.0 0.00 0.00 0.00 87 1010.0
20260901070427 59 202 0.0 0.0 0.00 0.00 0.00 87 1009.8
20260901065925 60 202 0.0 0.0 0.00 0.00 0.00 86 1010.0
20260901065422 60 202 0.0 0.0 0.00 0.00 0.00 86 1009.9
20260901064916 60 202 0.0 0.0 0.00 0.00 0.00 85 1009.7
20260901064413 60 202 0.0 0.0 0.00 0.00 0.00 84 1009.9
20260901063910 60 202 0.0 0.0 0.00 0.00 0.00 83 1009.9
20260901063406 60 202 0.0 0.0 0.00 0.00 0.00 83 1009.9
20260901062902 60 202 0.0 0.0 0.00 0.00 0.00 83 1010.1
20260901061853 61 202 0.0 0.0 0.00 0.00 0.00 82 1010.0
20260901061348 61 202 0.0 0.0 0.00 0.00 0.00 82 1009.9
20260901060844 61 202 0.0 0.0 0.00 0.00 0.00 82 1010.1
20260901060340 62 202 0.0 0.0 0.00 0.00 0.00 81 1010.0
20260901055839 62 202 0.0 0.0 0.00 0.00 0.00 81 1010.2
20260901055335 61 202 0.0 0.0 0.00 0.00 0.00 82 1010.0
20260901054832 61 202 0.0 0.0 0.00 0.00 0.00 83 1010.2
20260901054329 62 202 0.0 0.0 0.00 0.00 0.00 82 1010.1
20260901053824 62 202 0.0 0.0 0.00 0.00 0.00 83 1010.4